EN

Hourly Weather Allo

Today, 17 January, Sunday

Time Temperature Precipitation Wind Pressure Humidity
00:00 +3°C° 0 mm 3 mps 726 mmHg 61%
01:00 +2°C° 0 mm 3 mps 725 mmHg 61%
02:00 +3°C° 0 mm 2 mps 725 mmHg 62%
03:00 +3°C° 0 mm 2 mps 725 mmHg 63%
04:00 +3°C° 0 mm 2 mps 725 mmHg 65%
05:00 +3°C° 0 mm 2 mps 725 mmHg 67%
06:00 +3°C° 0 mm 2 mps 725 mmHg 69%
07:00 +4°C° 0 mm 2 mps 725 mmHg 69%
08:00 +4°C° 0 mm 2 mps 725 mmHg 70%
09:00 +5°C° 0 mm 2 mps 725 mmHg 70%
10:00 +5°C° 0.1 mm 3 mps 725 mmHg 71%
11:00 +7°C° 0.1 mm 3 mps 725 mmHg 71%
12:00 +7°C° 0.1 mm 3 mps 725 mmHg 72%
13:00 +7°C° 0.2 mm 3 mps 725 mmHg 75%
14:00 +7°C° 0.2 mm 3 mps 725 mmHg 78%
15:00 +7°C° 0.2 mm 3 mps 724 mmHg 82%
16:00 +7°C° 0.1 mm 3 mps 725 mmHg 84%
17:00 +7°C° 0.1 mm 3 mps 725 mmHg 87%
18:00 +6°C° 0.1 mm 2 mps 725 mmHg 89%
19:00 +6°C° 0 mm 2 mps 725 mmHg 90%
20:00 +6°C° 0 mm 2 mps 725 mmHg 91%
21:00 +6°C° 0 mm 2 mps 725 mmHg 92%
22:00 +5°C° 0 mm 2 mps 725 mmHg 92%
23:00 +5°C° 0 mm 2 mps 726 mmHg 92%

Tomorrow, 18 January, Monday

Time Temperature Precipitation Wind Pressure Humidity
00:00 +5°C° 0 mm 2 mps 726 mmHg 93%
01:00 +5°C° 0 mm 2 mps 725 mmHg 93%
02:00 +5°C° 0 mm 2 mps 725 mmHg 93%
03:00 +5°C° 0 mm 2 mps 725 mmHg 93%
04:00 +4°C° 0 mm 2 mps 725 mmHg 93%
05:00 +4°C° 0 mm 2 mps 725 mmHg 93%
06:00 +4°C° 0 mm 2 mps 725 mmHg 92%
07:00 +5°C° 0 mm 2 mps 725 mmHg 91%
08:00 +5°C° 0 mm 2 mps 725 mmHg 91%
09:00 +5°C° 0 mm 2 mps 725 mmHg 90%
10:00 +7°C° 0 mm 2 mps 725 mmHg 83%
11:00 +8°C° 0 mm 2 mps 725 mmHg 77%
12:00 +10°C° 0 mm 2 mps 725 mmHg 71%
13:00 +10°C° 0 mm 2 mps 725 mmHg 68%
14:00 +10°C° 0 mm 2 mps 724 mmHg 66%
15:00 +12°C° 0 mm 2 mps 724 mmHg 63%
16:00 +9°C° 0 mm 2 mps 724 mmHg 69%
17:00 +9°C° 0 mm 1 mps 724 mmHg 75%
18:00 +7°C° 0 mm 1 mps 724 mmHg 81%
19:00 +6°C° 0 mm 1 mps 723 mmHg 81%
20:00 +6°C° 0 mm 1 mps 723 mmHg 82%
21:00 +6°C° 0 mm 1 mps 723 mmHg 82%
22:00 +5°C° 0 mm 1 mps 723 mmHg 83%
23:00 +5°C° 0 mm 1 mps 723 mmHg 83%

Day after tomorrow, 19 January, Tuesday

Time Temperature Precipitation Wind Pressure Humidity
00:00 +4°C° 0 mm 1 mps 723 mmHg 83%
01:00 +4°C° 0 mm 1 mps 723 mmHg 84%
02:00 +4°C° 0 mm 1 mps 722 mmHg 85%
03:00 +3°C° 0 mm 1 mps 722 mmHg 85%
04:00 +3°C° 0 mm 1 mps 721 mmHg 86%
05:00 +3°C° 0 mm 1 mps 721 mmHg 87%
06:00 +2°C° 0 mm 1 mps 721 mmHg 88%
07:00 +3°C° 0 mm 1 mps 720 mmHg 87%
08:00 +3°C° 0 mm 1 mps 720 mmHg 85%
09:00 +4°C° 0 mm 1 mps 720 mmHg 83%
10:00 +4°C° 0 mm 2 mps 720 mmHg 79%
11:00 +5°C° 0 mm 2 mps 720 mmHg 75%
12:00 +7°C° 0 mm 3 mps 719 mmHg 70%
13:00 +7°C° 0 mm 3 mps 719 mmHg 69%
14:00 +8°C° 0 mm 3 mps 718 mmHg 67%
15:00 +8°C° 0 mm 3 mps 717 mmHg 66%
16:00 +7°C° 0 mm 3 mps 717 mmHg 71%
17:00 +4°C° 0 mm 3 mps 717 mmHg 77%
18:00 +4°C° 0 mm 2 mps 717 mmHg 82%
19:00 +4°C° 0 mm 2 mps 716 mmHg 82%
20:00 +3°C° 0 mm 3 mps 716 mmHg 82%
21:00 +3°C° 0 mm 3 mps 716 mmHg 83%
22:00 +2°C° 0 mm 3 mps 715 mmHg 84%
23:00 +2°C° 0 mm 3 mps 715 mmHg 85%

20 January, Wednesday

Time Temperature Precipitation Wind Pressure Humidity
00:00 +1°C° 0 mm 3 mps 715 mmHg 87%
01:00 +2°C° 0 mm 3 mps 714 mmHg 86%
02:00 +2°C° 0 mm 3 mps 713 mmHg 85%
03:00 +2°C° 0 mm 3 mps 713 mmHg 84%
04:00 +2°C° 0 mm 3 mps 712 mmHg 84%
05:00 +1°C° 0 mm 4 mps 712 mmHg 84%
06:00 +1°C° 0 mm 4 mps 711 mmHg 83%
07:00 +3°C° 0 mm 4 mps 711 mmHg 83%
08:00 +2°C° 0 mm 5 mps 711 mmHg 82%
09:00 +3°C° 0 mm 6 mps 710 mmHg 81%
10:00 +4°C° 0 mm 6 mps 710 mmHg 77%
11:00 +5°C° 0 mm 7 mps 709 mmHg 74%
12:00 +7°C° 0 mm 8 mps 709 mmHg 70%
13:00 +7°C° 0 mm 8 mps 708 mmHg 70%
14:00 +7°C° 0 mm 8 mps 708 mmHg 71%
15:00 +7°C° 0 mm 8 mps 707 mmHg 71%
16:00 +6°C° 0 mm 7 mps 707 mmHg 76%
17:00 +5°C° 0 mm 6 mps 707 mmHg 80%
18:00 +5°C° 0 mm 4 mps 707 mmHg 85%
19:00 +5°C° 0 mm 4 mps 707 mmHg 85%
20:00 +5°C° 0 mm 4 mps 707 mmHg 86%
21:00 +5°C° 0 mm 4 mps 707 mmHg 87%
22:00 +5°C° 0.1 mm 3 mps 707 mmHg 87%
23:00 +6°C° 0.1 mm 2 mps 708 mmHg 88%

21 January, Thursday

Time Temperature Precipitation Wind Pressure Humidity
00:00 +6°C° 0.1 mm 2 mps 708 mmHg 88%
01:00 +6°C° 0.1 mm 2 mps 709 mmHg 89%
02:00 +7°C° 0.1 mm 1 mps 709 mmHg 90%
03:00 +7°C° 0.1 mm 1 mps 709 mmHg 90%
04:00 +7°C° 0 mm 1 mps 710 mmHg 90%
05:00 +7°C° 0 mm 1 mps 710 mmHg 90%
06:00 +7°C° 0 mm 1 mps 710 mmHg 89%
07:00 +7°C° 0 mm 1 mps 711 mmHg 88%
08:00 +8°C° 0 mm 1 mps 711 mmHg 87%
09:00 +8°C° 0 mm 1 mps 711 mmHg 85%
10:00 +8°C° 0 mm 2 mps 711 mmHg 81%
11:00 +9°C° 0 mm 2 mps 711 mmHg 77%
12:00 +10°C° 0 mm 2 mps 711 mmHg 73%
13:00 +10°C° 0 mm 2 mps 711 mmHg 72%
14:00 +11°C° 0 mm 3 mps 710 mmHg 70%
15:00 +11°C° 0 mm 3 mps 709 mmHg 69%
16:00 +11°C° 0.1 mm 3 mps 709 mmHg 72%
17:00 +10°C° 0.1 mm 4 mps 709 mmHg 74%
18:00 +8°C° 0.1 mm 4 mps 708 mmHg 77%
19:00 +9°C° 0.4 mm 3 mps 708 mmHg 79%
20:00 +9°C° 0.4 mm 3 mps 708 mmHg 82%
21:00 +9°C° 0.4 mm 2 mps 708 mmHg 85%
22:00 +9°C° 1 mm 2 mps 707 mmHg 87%
23:00 +9°C° 1 mm 2 mps 707 mmHg 90%

22 January, Friday

Time Temperature Precipitation Wind Pressure Humidity
00:00 +9°C° 1 mm 2 mps 707 mmHg 92%
01:00 +8°C° 1.6 mm 2 mps 707 mmHg 92%
02:00 +9°C° 1.6 mm 1 mps 707 mmHg 92%
03:00 +9°C° 1.6 mm 1 mps 708 mmHg 92%
04:00 +8°C° 0 mm 1 mps 708 mmHg 90%
05:00 +8°C° 0 mm 1 mps 708 mmHg 89%
06:00 +7°C° 0 mm 1 mps 708 mmHg 87%
07:00 +7°C° 0 mm 2 mps 708 mmHg 85%
08:00 +7°C° 0 mm 2 mps 708 mmHg 83%
09:00 +8°C° 0 mm 2 mps 708 mmHg 81%
10:00 +8°C° 0.1 mm 4 mps 707 mmHg 73%
11:00 +9°C° 0.1 mm 6 mps 707 mmHg 66%
12:00 +10°C° 0.1 mm 8 mps 706 mmHg 58%
13:00 +8°C° 0.5 mm 9 mps 707 mmHg 63%
14:00 +7°C° 0.5 mm 11 mps 707 mmHg 67%
15:00 +5°C° 0.5 mm 13 mps 707 mmHg 72%
16:00 +4°C° 1.2 mm 12 mps 708 mmHg 73%
17:00 +3°C° 1.2 mm 11 mps 710 mmHg 75%
18:00 +2°C° 1.2 mm 10 mps 711 mmHg 76%
19:00 +2°C° 0 mm 8 mps 712 mmHg 79%
20:00 +2°C° 0 mm 6 mps 713 mmHg 82%
21:00 +2°C° 0 mm 5 mps 714 mmHg 84%
22:00 +3°C° 0 mm 4 mps 715 mmHg 84%
23:00 +1°C° 0 mm 4 mps 715 mmHg 84%
Show more